Battle Creek, MI

12:48 PM EDT on October 14, 2019 (GMT -0400)
Kellogg

Weather History for KBTL - July, 2019

Change the Weather History Date:

Saturday, July 27, 2019

  Actual Average Record
Temperature  
Mean Temperature 78 °F 71 °F  
Max Temperature 88 °F 82 °F 90 °F (2007)
Min Temperature 68 °F 59 °F 52 °F (2001)
Degree Days  
Heating Degree Days 0 0  
Month to date heating degree days 0 6  
Since 1 June heating degree days 46 63  
Since 1 July heating degree days 0 6  
Cooling Degree Days 13 6  
Month to date cooling degree days 297 174  
Year to date cooling degree days 438 338  
Since 1 June cooling degree days 422 300  
Growing Degree Days 27 (Base 50)    
Moisture  
Dew Point 64 °F    
Average Humidity 65    
Maximum Humidity 81    
Minimum Humidity 48    
Precipitation  
Precipitation 0.00 in 0.11 in 1.06 in (2002)
Month to date precipitation 2.01 2.91  
Year to date precipitation 20.30 17.62  
Sea Level Pressure  
Sea Level Pressure 30.11 in    
Wind  
Wind Speed 14 mph (SSW)    
Max Wind Speed 22 mph    
Max Gust Speed 31 mph    
Visibility 10 miles    
Events      
T = Trace of Precipitation, MM = Missing Value Source: NWS Daily Summary

Daily Weather History Graph

Daily Weather History Graph

Search for Another Location

Airport or City:

Astronomy

Jul. 27, 2019 Rise Set
Actual Time 6:28 AM EDT 9:06 PM EDT
Civil Twilight 5:56 AM EDT 9:38 PM EDT
Nautical Twilight 5:15 AM EDT 10:18 PM EDT
Astronomical Twilight 4:29 AM EDT 11:04 PM EDT
Moon 2:14 AM EDT (7/27) 4:56 PM EDT (7/27)
Length of Visible Light 15h 42m
Length of Day
14h 37m
Waning Crescent, 24% of the Moon is Illuminated
Jul 27
Waning Crescent
Jul 31
New
Aug 7
First Quarter
Aug 15
Full
Aug 23
Last Quarter

Hourly Weather History & Observations

Time (EDT) Temp. Heat Index Dew Point Humidity Pressure Visibility Wind Dir Wind Speed Gust Speed Precip Events Conditions
12:53 AM 72.0 °F - 61.0 °F 68% 30.17 in 10.0 mi South 9.2 mph - N/A   Clear
1:53 AM 70.0 °F - 61.0 °F 73% 30.16 in 10.0 mi South 9.2 mph - N/A   Clear
2:53 AM 69.1 °F - 62.1 °F 78% 30.15 in 10.0 mi South 10.4 mph - N/A   Clear
3:53 AM 68.0 °F - 62.1 °F 81% 30.16 in 10.0 mi SSW 8.1 mph - N/A   Partly Cloudy
4:53 AM 68.0 °F - 62.1 °F 81% 30.16 in 10.0 mi SSW 5.8 mph - N/A   Overcast
5:53 AM 68.0 °F - 62.1 °F 81% 30.16 in 10.0 mi SSW 9.2 mph - N/A   Clear
6:53 AM 68.0 °F - 62.1 °F 81% 30.16 in 10.0 mi South 9.2 mph - N/A   Clear
7:53 AM 68.0 °F - 62.1 °F 81% 30.15 in 10.0 mi South 10.4 mph - N/A   Clear
9:53 AM 77.0 °F - 63.0 °F 62% 30.16 in 10.0 mi SW 13.8 mph - N/A   Clear
10:53 AM 80.1 °F 81.7 °F 64.0 °F 58% 30.14 in 10.0 mi SW 15.0 mph - N/A   Clear
11:53 AM 82.0 °F 83.4 °F 64.0 °F 54% 30.14 in 10.0 mi SW 16.1 mph 26.5 mph N/A   Clear
12:53 PM 82.9 °F 84.4 °F 64.0 °F 53% 30.12 in 10.0 mi WSW 17.3 mph 26.5 mph N/A   Mostly Cloudy
1:53 PM 82.9 °F 84.4 °F 64.0 °F 53% 30.11 in 10.0 mi SW 15.0 mph 24.2 mph N/A   Overcast
2:53 PM 84.9 °F 85.9 °F 63.0 °F 48% 30.09 in 10.0 mi SW 20.7 mph 27.6 mph N/A   Partly Cloudy
3:53 PM 86.0 °F 87.3 °F 64.0 °F 48% 30.08 in 10.0 mi SW 16.1 mph - N/A   Partly Cloudy
4:53 PM 84.9 °F 86.1 °F 64.0 °F 49% 30.07 in 10.0 mi SW 17.3 mph 27.6 mph N/A   Scattered Clouds
5:53 PM 86.0 °F 87.6 °F 64.9 °F 49% 30.06 in 10.0 mi SW 19.6 mph 28.8 mph N/A   Clear
6:53 PM 84.0 °F 86.3 °F 66.0 °F 55% 30.06 in 10.0 mi SSW 15.0 mph - N/A   Clear
7:53 PM 82.0 °F 84.1 °F 66.0 °F 58% 30.05 in 10.0 mi SSW 13.8 mph - N/A   Partly Cloudy
8:53 PM 80.1 °F 82.1 °F 66.0 °F 62% 30.06 in 10.0 mi SW 11.5 mph - N/A   Clear
9:53 PM 78.1 °F - 66.0 °F 66% 30.06 in 10.0 mi SSW 11.5 mph - N/A   Clear
10:53 PM 77.0 °F - 66.0 °F 69% 30.06 in 10.0 mi SSW 13.8 mph - N/A   Clear